DQA62L VRMK-VRMM

Flight info

Callsign DQA62L
Flight time 0h 30m
Altitude 17000
Route LARAL T456 DALSO DALSO1A
Aircraft DH8D/M-SDE2E3FGRY/H

Departure

Time 2026-04-17 06:29
Airport Kadhdhoo Airport (VRMK)

Arrival

Time 2026-04-17 07:00
Airport Velana International Airport (VRMM)
Time Latitude Longitude Altitude Speed Heading
2026-04-17 06:29 1.96196 73.45523 3626 ft 253 kts 305°
2026-04-17 06:29 1.97190 73.44066 4102 ft 254 kts 305°
2026-04-17 06:30 1.98512 73.42121 4667 ft 258 kts 305°
2026-04-17 06:30 1.99198 73.41109 4984 ft 258 kts 305°
2026-04-17 06:30 2.00200 73.39628 5407 ft 261 kts 305°
2026-04-17 06:30 2.01229 73.38105 5804 ft 264 kts 305°
2026-04-17 06:31 2.02263 73.36574 6219 ft 266 kts 305°
2026-04-17 06:31 2.03291 73.35051 6629 ft 267 kts 305°
2026-04-17 06:31 2.04349 73.33482 7017 ft 270 kts 305°
2026-04-17 06:31 2.06019 73.31647 7487 ft 271 kts 332°
2026-04-17 06:32 2.07220 73.31282 7758 ft 269 kts 354°
2026-04-17 06:32 2.09092 73.31290 8104 ft 271 kts
2026-04-17 06:32 2.11624 73.31416 8602 ft 274 kts
2026-04-17 06:32 2.12918 73.31486 8845 ft 275 kts
2026-04-17 06:33 2.14839 73.31594 9197 ft 277 kts
2026-04-17 06:33 2.16785 73.31702 9554 ft 279 kts
2026-04-17 06:33 2.18727 73.31812 9891 ft 281 kts
2026-04-17 06:33 2.20693 73.31921 10224 ft 283 kts
2026-04-17 06:34 2.22700 73.32035 10229 ft 298 kts
2026-04-17 06:34 2.24884 73.32161 9847 ft 320 kts
2026-04-17 06:34 2.27081 73.32283 10268 ft 313 kts
2026-04-17 06:34 2.29282 73.32405 10546 ft 312 kts
2026-04-17 06:35 2.31457 73.32526 10783 ft 313 kts
2026-04-17 06:35 2.33646 73.32649 11020 ft 313 kts
2026-04-17 06:35 2.35850 73.32773 11258 ft 314 kts
2026-04-17 06:35 2.38027 73.32895 11492 ft 314 kts
2026-04-17 06:36 2.40954 73.33060 11808 ft 314 kts
2026-04-17 06:36 2.42428 73.33143 11967 ft 315 kts
2026-04-17 06:36 2.44619 73.33266 12203 ft 315 kts
2026-04-17 06:36 2.46808 73.33389 12439 ft 314 kts
2026-04-17 06:37 2.49749 73.33555 12754 ft 314 kts
2026-04-17 06:37 2.51953 73.33678 12990 ft 314 kts
2026-04-17 06:37 2.53419 73.33762 13147 ft 314 kts
2026-04-17 06:37 2.55598 73.33884 13379 ft 313 kts
2026-04-17 06:38 2.58509 73.34049 13689 ft 313 kts
2026-04-17 06:38 2.59970 73.34131 13845 ft 313 kts
2026-04-17 06:38 2.62149 73.34254 14077 ft 313 kts
2026-04-17 06:38 2.64334 73.34377 14310 ft 312 kts
2026-04-17 06:39 2.66504 73.34499 14541 ft 312 kts
2026-04-17 06:39 2.68676 73.34621 14773 ft 312 kts
2026-04-17 06:39 2.70869 73.34745 15006 ft 311 kts
2026-04-17 06:39 2.73051 73.34869 15238 ft 311 kts
2026-04-17 06:40 2.75229 73.34991 15470 ft 311 kts
2026-04-17 06:40 2.77382 73.35113 15698 ft 310 kts
2026-04-17 06:40 2.79561 73.35236 15930 ft 310 kts
2026-04-17 06:40 2.81719 73.35358 16159 ft 310 kts
2026-04-17 06:41 2.83870 73.35479 16387 ft 309 kts
2026-04-17 06:41 2.86034 73.35601 16617 ft 309 kts
2026-04-17 06:41 2.88909 73.35764 16878 ft 310 kts
2026-04-17 06:41 2.91096 73.35888 16926 ft 316 kts
2026-04-17 06:42 2.92585 73.35973 16933 ft 320 kts
2026-04-17 06:42 2.94844 73.36101 16936 ft 326 kts
2026-04-17 06:42 2.97125 73.36231 16936 ft 331 kts
2026-04-17 06:42 2.99456 73.36363 16933 ft 335 kts
2026-04-17 06:43 3.02613 73.36542 16935 ft 339 kts
2026-04-17 06:43 3.04183 73.36630 16936 ft 341 kts
2026-04-17 06:43 3.06566 73.36765 16940 ft 342 kts
2026-04-17 06:43 3.08971 73.36901 16945 ft 344 kts
2026-04-17 06:44 3.11384 73.37038 16947 ft 345 kts
2026-04-17 06:44 3.13793 73.37174 16947 ft 345 kts
2026-04-17 06:44 3.16210 73.37311 16948 ft 346 kts
2026-04-17 06:44 3.18647 73.37448 16947 ft 348 kts
2026-04-17 06:45 3.21061 73.37585 16949 ft 348 kts
2026-04-17 06:45 3.23500 73.37723 16948 ft 349 kts
2026-04-17 06:45 3.25956 73.37862 16948 ft 350 kts
2026-04-17 06:45 3.29217 73.38046 16949 ft 351 kts
2026-04-17 06:46 3.30841 73.38138 16949 ft 351 kts
2026-04-17 06:46 3.34113 73.38323 16962 ft 351 kts
2026-04-17 06:46 3.35779 73.38423 16961 ft 351 kts
2026-04-17 06:46 3.38182 73.38885 16973 ft 348 kts 18°
2026-04-17 06:47 3.40482 73.39609 16964 ft 349 kts 19°
2026-04-17 06:47 3.42833 73.40362 16934 ft 351 kts 19°
2026-04-17 06:47 3.45192 73.41119 16635 ft 358 kts 19°
2026-04-17 06:47 3.48301 73.42104 15951 ft 341 kts 19°
2026-04-17 06:48 3.49789 73.42574 15604 ft 334 kts 18°
2026-04-17 06:48 3.51966 73.43260 15089 ft 323 kts 18°
2026-04-17 06:48 3.54088 73.43929 14583 ft 314 kts 18°
2026-04-17 06:48 3.56161 73.44583 14087 ft 305 kts 18°
2026-04-17 06:49 3.58829 73.45425 13447 ft 295 kts 18°
2026-04-17 06:49 3.60131 73.45836 13134 ft 290 kts 18°
2026-04-17 06:49 3.62658 73.46632 12526 ft 280 kts 18°
2026-04-17 06:49 3.64510 73.47217 12083 ft 274 kts 18°
2026-04-17 06:50 3.65714 73.47597 11793 ft 270 kts 18°
2026-04-17 06:50 3.67486 73.48155 11369 ft 263 kts 18°
2026-04-17 06:50 3.69241 73.48709 10948 ft 258 kts 18°
2026-04-17 06:50 3.71500 73.49421 10406 ft 250 kts 19°
2026-04-17 06:51 3.72591 73.49766 10145 ft 246 kts 19°
2026-04-17 06:51 3.74231 73.50282 9752 ft 240 kts 19°
2026-04-17 06:51 3.75797 73.50776 9376 ft 233 kts 19°
2026-04-17 06:51 3.77836 73.51418 8886 ft 224 kts 19°
2026-04-17 06:52 3.78833 73.51732 8646 ft 219 kts 19°
2026-04-17 06:52 3.80266 73.52183 8301 ft 212 kts 19°
2026-04-17 06:52 3.81640 73.52616 7969 ft 203 kts 19°
2026-04-17 06:52 3.82987 73.53023 7640 ft 194 kts 14°
2026-04-17 06:53 3.84303 73.53139 7337 ft 184 kts
2026-04-17 06:53 3.85538 73.53131 7045 ft 171 kts
2026-04-17 06:53 3.86752 73.53129 6819 ft 182 kts
2026-04-17 06:53 3.88594 73.53142 6408 ft 213 kts
2026-04-17 06:54 3.90160 73.53146 6052 ft 235 kts
2026-04-17 06:54 3.91274 73.53148 5794 ft 244 kts
2026-04-17 06:54 3.93008 73.53145 5375 ft 244 kts
2026-04-17 06:54 3.94692 73.53139 4974 ft 238 kts
2026-04-17 06:55 3.96869 73.53130 4468 ft 229 kts
2026-04-17 06:55 3.98459 73.53124 4117 ft 223 kts
2026-04-17 06:55 3.99489 73.53121 3878 ft 219 kts
2026-04-17 06:55 4.01473 73.53114 3405 ft 211 kts 360°
2026-04-17 06:56 4.02458 73.53112 3146 ft 206 kts 360°
2026-04-17 06:56 4.04331 73.53121 2753 ft 196 kts 360°
2026-04-17 06:56 4.05246 73.53120 2558 ft 190 kts 359°
2026-04-17 06:56 4.06542 73.53117 2222 ft 185 kts 359°
2026-04-17 06:57 4.08158 73.53112 1836 ft 159 kts 359°
2026-04-17 06:57 4.09194 73.53111 1653 ft 140 kts 359°
2026-04-17 06:57 4.10160 73.53120 1542 ft 137 kts 359°
2026-04-17 06:57 4.11135 73.53122 1390 ft 139 kts 359°
2026-04-17 06:58 4.11778 73.53122 1284 ft 140 kts 359°
2026-04-17 06:58 4.13122 73.53157 1067 ft 144 kts
2026-04-17 06:58 4.14108 73.53155 870 ft 142 kts 356°
2026-04-17 06:58 4.15103 73.53117 666 ft 141 kts 357°
2026-04-17 06:59 4.16104 73.53117 483 ft 143 kts
2026-04-17 06:59 4.16763 73.53120 398 ft 141 kts 358°
2026-04-17 06:59 4.17760 73.53110 189 ft 140 kts 358°
2026-04-17 06:59 4.19001 73.53101 13 ft 117 kts
2026-04-17 07:00 4.19563 73.53101 13 ft 47 kts 360°
2026-04-17 07:00 4.19679 73.53083 13 ft 12 kts 309°
2026-04-17 07:00 4.19689 73.53056 13 ft 1 kts 279°
2026-04-17 07:00 4.19692 73.52967 13 ft 15 kts 271°
2026-04-17 07:01 4.19601 73.52908 13 ft 21 kts 180°
2026-04-17 07:01 4.19421 73.52911 13 ft 29 kts 179°
2026-04-17 07:01 4.19198 73.52914 13 ft 32 kts 179°
2026-04-17 07:01 4.19082 73.52917 13 ft 14 kts 179°
2026-04-17 07:02 4.19032 73.52865 13 ft 10 kts 248°
2026-04-17 07:02 4.18987 73.52849 13 ft 12 kts 178°
2026-04-17 07:02 4.18923 73.52846 12 ft 1 kts 221°
2026-04-17 07:02 4.18918 73.52814 13 ft 6 kts 270°
2026-04-17 07:03 4.18918 73.52792 13 ft 0 kts 269°
2026-04-17 07:03 4.18918 73.52790 13 ft 0 kts 269°